USA 164 (MILSTAR-2 3)

Last updated on Wed Sep 17 2025 00:02:46 GMT+0000 (Coordinated Universal Time)

1 27168U 02001A 25259.51613172 .00000084 00000+0 00000+0 0 9996 2 27168 10.8516 23.4826 0096860 5.7557 171.2239 1.00270076 30214
UTC large
Height (km)
Speed (km/s)
/
Latitude / Longitude
Inclination (degrees)
Orbital Period (minutes)
Azimuth
Elevation
Range (km)
Doppler Factor

Next 0 passes for location: London (51.5072 / 0.1276)

Sorry there are no passes over London.